Terminal Aerodrome Forecast
Issued by NWS San Angelo, TX

Home | Current Version | Previous Version | Text Only | Print | Product List | Glossary On
Versions: 1 2 3 4 5 6 7 8 9 10 11 12 13 14 15 16
000
FTUS44 KSJT 281720
TAFABI
TAF
KABI 281720Z 2818/2918 14012G18KT P6SM BKN025 OVC045
     FM282100 16017G23KT P6SM VCTS OVC019CB
     FM290000 16016G23KT P6SM VCTS BKN070CB
      TEMPO 2900/2903 P6SM -SHRA BKN060
     FM290300 17012KT 5SM TSRA BKN035CB
     FM290600 18007KT P6SM SCT030
     FM291500 24013G19KT P6SM SKC=

USA.gov is the U.S. government's official web portal to all federal, state and local government web resources and services.